Hourly Data Report for September 18, 2017

All times are specified in Local Standard Time (LST). Add 1 hour to adjust for Daylight Saving Time where and when it is observed.

ARVIAT A
NUNAVUT

61°05'38.000" N
94°04'18.000" W
10.40 m
2300427
71174
YEK

Related Data

No related data is available for this station

Download Data

Hourly Data (September 2017)
Hourly Data Report for September 18, 2017
Temp Definition
°C
Dew Point Temp Definition
°C
Rel Hum Definition
%
Wind Dir Definition
10's deg

Wind Spd Definition
km/h
Visibility Definition
km
Stn Press Definition
kPa
Hmdx Definition


Wind Chill Definition


Weather Definition


TIME
00:00 Legend Double Dagger 4.4 4.3 99 12 13 16.1 101.54     LegendNANA
01:00 Legend Double Dagger 4.8 4.4 97 12 11 16.1 101.50     LegendNANA
02:00 Legend Double Dagger 5.0 4.9 99 13 17 16.1 101.45     LegendNANA
03:00 Legend Double Dagger 5.1 4.8 98 11 9 16.1 101.44     LegendNANA
04:00 Legend Double Dagger 5.2 4.9 98 9 8 9.7 101.40     Fog
05:00 Legend Double Dagger 5.5 5.4 99 9 9 6.4 101.37     Rain,Fog
06:00 Legend Double Dagger 5.6 5.2 97 10 11 16.1 101.35     LegendNANA
07:00 Legend Double Dagger 5.0 4.9 99 12 11 4.0 101.32     Fog
08:00 Legend Double Dagger 4.3 4.3 100 12 9 1.2 101.32     Fog
09:00 Legend Double Dagger 4.4 4.4 100 17 11 1.2 101.34     Fog
10:00 Legend Double Dagger 4.7 4.7 100 19 8 2.4 101.33     Fog
11:00 Legend Double Dagger 5.0 4.4 96   0 16.1 101.29     LegendNANA
12:00 Legend Double Dagger 5.9 5.0 94 2 5 16.1 101.29     LegendNANA
13:00 Legend Double Dagger 7.5 5.5 87 36 8 16.1 101.27     LegendNANA
14:00 Legend Double Dagger 7.5 5.5 87 6 8 16.1 101.26     LegendNANA
15:00 Legend Double Dagger 7.4 5.7 89 7 11 16.1 101.25     LegendNANA
16:00 Legend Double Dagger 6.9 5.6 91 5 11 16.1 101.21     LegendNANA
17:00 Legend Double Dagger 6.7 5.8 94 5 9 16.1 101.19     LegendNANA
18:00 Legend Double Dagger 6.8 5.6 92 5 9 16.1 101.19     LegendNANA
19:00 Legend Double Dagger 6.6 5.7 94 5 11 16.1 101.20     LegendNANA
20:00 Legend Double Dagger 6.7 5.7 93 4 11 16.1 101.22     LegendNANA
21:00 Legend Double Dagger 6.6 5.4 92 5 11 16.1 101.23     LegendNANA
22:00 Legend Double Dagger 6.4 5.4 93 6 9 16.1 101.23     LegendNANA
23:00 Legend Double Dagger 6.4 5.0 91 5 8 16.1 101.23     LegendNANA

Notes on Data Quality.

Legend

  • E = Estimated
  • M = Missing
  • NA = Not Available
  • ‡ = Partner data that is not subject to review by the National Climate Archives
Date modified: